GFSNW_sfc_thetae_114.txt.gz
Theta_e
322 322 323 323 321 314 308 299 292 307 308 299 300 298 298 300 299 300 298 298 296 295 296 294 293 293 296 297 295 291 295 292 288 289 294 295 295 293 292 290 287 293 290 290
321 321 322 322 317 312 305 295 295 306 304 294 296 298 297 299 297 297 297 296 298 297 295 292 294 295 297 296 295 293 296 291 287 288 292 293 291 292 292 293 294 289 288 290
317 320 321 320 317 313 303 295 291 299 301 300 297 297 296 295 298 298 298 297 298 295 293 296 294 294 296 296 296 300 298 293 289 286 288 290 288 289 291 291 290 289 290 291
316 316 320 320 317 312 304 296 293 299 293 295 296 298 298 295 293 297 297 294 295 294 291 292 293 295 295 293 296 294 295 289 289 290 290 290 289 288 290 289 293 289 290 290
315 315 316 320 318 311 305 295 293 294 297 296 295 295 295 295 295 296 295 294 296 295 293 294 293 294 294 294 293 292 291 288 288 288 290 290 289 292 292 292 293 292 292 291
314 314 314 313 317 312 308 299 298 297 295 295 293 294 296 296 297 298 299 298 296 293 296 299 298 299 297 296 293 291 290 290 287 287 289 290 289 292 293 294 294 292 289 295
314 314 314 313 316 314 307 301 299 296 290 293 293 295 296 296 297 298 297 299 298 297 298 297 297 295 293 293 292 294 290 289 289 287 290 284 292 296 295 293 294 295 294 296
314 314 314 315 316 315 308 301 299 298 294 293 293 295 295 297 299 296 296 296 299 300 298 295 291 290 291 289 290 291 292 290 287 287 287 291 293 294 294 292 294 297 296 297
313 312 312 313 314 315 310 301 302 299 296 292 296 295 296 294 295 293 293 294 298 298 295 293 290 290 291 288 287 290 290 291 288 288 285 284 292 295 296 295 290 296 299 298
313 311 312 313 314 315 315 306 301 297 292 296 298 296 295 297 296 295 293 293 294 296 294 291 289 290 292 289 289 286 287 287 286 288 287 291 297 296 295 288 293 297 300 300
311 311 311 313 312 313 314 307 303 300 294 295 298 300 297 296 297 294 294 293 293 293 292 292 291 290 291 290 292 289 289 287 286 288 286 285 298 296 292 299 299 299 300 301
311 311 310 311 312 312 313 304 304 305 299 298 299 301 303 303 302 297 296 299 296 297 295 292 292 289 291 293 290 293 290 294 292 293 294 299 299 301 301 301 301 301 302 303
310 311 311 310 310 313 312 309 304 303 298 298 297 296 303 304 303 304 297 296 298 296 299 295 295 292 293 289 291 293 294 295 293 294 299 297 298 301 301 301 301 303 303 303
309 310 311 310 310 310 311 306 306 304 301 294 295 300 300 305 300 299 301 298 297 297 299 296 295 293 296 294 294 294 296 295 294 295 298 298 299 300 303 303 303 302 303 303
309 309 310 311 310 310 308 308 307 309 303 294 291 295 300 301 301 298 298 298 297 297 294 294 295 295 294 292 292 291 294 295 293 294 300 301 301 302 303 302 302 302 302 301
308 308 308 310 310 308 305 299 307 309 303 293 288 295 295 297 299 297 297 297 296 297 295 296 295 294 295 291 290 296 296 298 301 299 303 301 302 300 300 300 301 301 301 302
307 307 307 308 307 307 300 298 305 309 303 292 285 287 294 296 297 296 296 297 296 297 295 294 295 294 293 293 289 294 295 298 299 301 301 298 299 298 299 299 301 301 302 302
305 306 306 306 305 304 300 303 306 307 298 295 285 286 290 296 293 292 297 295 295 294 295 293 293 293 292 288 293 294 296 296 298 299 300 300 302 300 299 300 300 298 299 300
304 305 305 303 301 297 301 308 307 301 295 286 287 286 285 295 294 294 294 296 291 293 292 292 294 291 287 291 293 293 294 294 296 297 298 299 297 298 299 298 297 297 298 299
304 302 297 292 299 307 304 295 289 289 288 290 289 293 287 293 292 291 292 294 292 287 291 292 289 289 294 295 295 296 297 297 297 295 295 295 296 296 297 298 298 298 298 298
298 294 293 301 303 297 291 285 284 284 284 286 288 291 287 293 289 290 293 290 289 284 288 288 287 286 291 294 295 297 298 298 298 299 298 299 298 297 297 298 298 297 298 298
299 299 298 297 289 285 283 283 284 286 285 288 287 289 292 290 295 290 289 288 287 283 288 285 283 289 294 295 296 297 299 299 298 299 298 298 298 298 298 298 298 297 298 298
301 295 289 286 285 280 281 279 283 285 287 288 289 288 290 291 293 290 288 285 285 288 284 282 286 293 294 296 298 299 299 298 298 298 298 298 297 298 297 297 298 298 297 297
290 285 281 282 281 282 285 286 289 289 290 289 292 290 291 291 290 289 286 287 286 282 280 282 291 292 295 298 298 296 295 295 295 295 296 295 296 296 296 296 297 297 296 297
285 285 281 283 286 287 289 291 290 291 293 293 291 290 291 288 287 288 283 281 281 284 284 290 294 296 296 296 295 295 296 295 295 295 295 295 295 295 295 296 297 297 297 295
286 285 284 287 286 286 287 289 289 293 292 294 293 289 286 286 288 284 283 282 281 287 289 294 296 295 296 295 295 295 296 295 295 295 295 295 294 295 296 296 296 297 296 295
285 284 288 288 287 287 288 291 290 294 291 288 289 285 285 289 285 283 288 286 291 291 294 295 295 295 295 294 293 293 293 293 294 294 294 295 295 295 295 294 295 296 295 295

GFSNW_sfc_thetae_117.txt.gz
Theta_e
317 320 322 323 321 317 310 304 292 311 316 299 299 297 302 303 303 303 300 301 300 299 299 297 296 296 298 301 298 295 297 295 291 292 297 298 297 294 295 290 289 293 292 291
318 318 322 322 319 313 311 299 298 311 310 293 295 300 300 302 301 301 300 299 301 301 298 295 297 297 300 299 298 296 298 294 290 290 294 296 293 294 293 293 296 292 288 290
317 316 317 321 318 315 311 300 292 301 303 301 297 297 297 297 303 301 301 301 301 299 297 298 295 295 298 299 298 300 299 296 293 289 291 294 291 293 293 292 290 291 291 290
316 316 315 319 318 316 309 301 296 299 294 296 298 299 298 297 295 300 301 298 299 298 294 294 293 297 297 297 299 298 297 293 294 294 293 293 292 291 291 290 293 290 292 291
315 316 315 315 314 315 308 300 296 299 297 297 296 296 296 296 298 298 296 297 299 299 296 296 294 297 297 297 297 296 296 292 291 291 295 292 291 293 294 294 295 294 295 293
314 315 315 313 312 314 305 309 306 299 296 296 295 296 295 297 300 299 301 299 299 297 299 301 302 302 301 300 296 295 294 293 292 290 293 293 291 295 295 295 297 296 291 297
313 314 314 314 313 312 312 311 307 297 292 295 295 296 297 297 299 298 301 302 300 302 304 301 300 299 297 297 296 298 293 293 292 289 293 287 294 298 298 297 297 298 296 298
312 313 314 314 314 313 311 307 303 299 295 295 295 296 296 297 300 299 301 302 306 303 301 297 293 293 293 293 293 294 295 294 290 288 290 294 295 296 295 294 295 300 298 299
311 312 313 314 313 312 312 308 307 304 297 297 298 295 297 295 296 298 299 299 304 303 300 297 291 290 293 289 289 293 294 294 291 291 287 286 295 297 299 298 291 301 300 300
310 311 312 313 313 313 311 310 308 302 296 302 301 295 296 300 298 297 297 296 296 301 297 293 292 292 296 290 290 287 289 290 288 290 289 294 300 298 299 289 294 299 301 301
310 311 311 312 312 313 312 308 306 304 298 302 302 302 299 299 300 296 298 295 296 296 295 294 294 293 294 294 296 292 291 290 289 291 289 287 301 297 293 301 302 302 302 303
309 310 311 311 311 312 311 304 306 308 302 301 302 301 302 304 304 301 298 299 298 300 297 298 298 294 296 295 290 297 292 297 295 295 296 302 302 302 303 304 304 303 303 304
308 309 309 310 311 311 311 304 304 304 298 298 299 299 301 305 305 308 298 301 303 302 305 301 298 295 297 293 294 296 297 301 297 296 300 300 302 303 304 304 304 306 306 306
307 308 309 310 310 309 308 304 305 305 301 294 296 305 299 304 305 304 305 305 302 304 303 300 298 296 300 296 298 297 299 298 296 297 300 301 302 303 304 304 305 305 306 306
307 308 309 309 309 310 310 309 306 308 301 291 294 302 302 302 302 300 303 302 301 300 298 298 296 300 298 299 298 296 299 298 296 296 302 302 303 305 306 303 304 305 305 304
307 308 308 309 308 308 305 299 306 307 304 295 289 296 298 299 300 299 300 303 302 301 299 297 299 300 298 296 293 298 301 302 303 301 304 304 305 305 304 303 304 304 304 304
306 307 308 308 308 305 299 297 303 309 304 293 286 288 295 299 299 298 298 301 300 300 298 297 297 297 296 297 292 297 300 301 302 302 302 300 301 301 302 302 303 304 303 303
305 306 307 307 306 304 300 306 305 307 298 295 286 286 290 297 293 292 299 296 298 298 297 298 296 296 296 292 296 298 299 299 299 300 302 301 303 303 303 303 302 301 300 302
305 305 305 302 300 297 301 307 303 301 297 286 286 286 286 295 295 295 296 297 291 298 293 294 295 293 291 294 297 298 298 297 298 299 300 300 300 300 301 302 301 299 300 301
304 301 295 292 298 305 305 299 293 291 290 291 289 296 288 294 292 291 292 295 292 290 293 297 293 292 297 298 298 298 299 299 299 296 296 297 298 298 299 300 301 301 300 301
298 291 292 300 304 301 296 286 286 285 283 286 291 293 290 297 291 290 294 290 291 286 292 290 290 290 295 298 298 299 300 300 300 300 300 300 300 300 300 300 301 301 302 300
295 298 300 299 291 286 285 284 286 285 286 289 291 292 294 294 297 291 291 289 290 285 293 289 286 293 297 297 297 298 300 301 300 301 300 300 300 300 300 300 300 300 301 301
299 294 290 287 285 281 282 280 284 286 288 290 293 289 290 293 295 292 292 287 286 292 287 285 289 297 298 298 298 299 300 300 300 299 301 301 301 301 300 299 300 301 301 300
287 285 282 283 282 284 286 287 287 292 293 292 294 291 291 293 291 291 287 291 289 285 283 287 294 296 297 299 300 300 299 301 301 300 300 300 299 299 299 299 300 299 299 299
285 286 282 283 289 290 290 292 290 292 295 293 292 291 293 292 288 291 287 283 283 286 287 294 298 299 300 299 299 300 300 298 298 299 298 298 298 298 298 299 299 299 299 299
286 285 284 289 287 287 288 289 290 294 294 295 293 288 286 286 288 285 284 285 283 289 294 298 300 300 300 299 299 299 300 299 298 297 297 297 297 297 298 298 299 299 299 298
285 284 290 290 290 289 290 291 292 295 292 287 288 284 285 290 286 285 290 288 293 297 297 298 300 300 299 300 299 298 299 298 298 297 297 297 298 298 297 296 298 299 299 298

GFSNW_sfc_thetae_120.txt.gz
Theta_e
317 318 318 318 322 318 314 305 293 310 314 299 297 294 299 303 304 305 303 302 302 299 299 297 297 296 298 301 300 296 296 292 289 291 296 298 295 292 291 285 285 288 287 286
316 317 318 317 318 315 309 299 299 310 310 290 291 295 297 300 303 301 300 299 303 302 299 295 298 298 301 300 299 296 297 292 286 288 292 294 292 294 292 290 289 287 281 285
314 315 317 317 315 315 310 299 291 300 303 301 294 292 294 296 304 302 302 301 302 299 297 299 296 296 298 299 300 302 300 293 290 286 290 292 289 292 291 288 283 286 285 286
314 314 316 316 315 316 310 302 294 298 291 293 295 295 295 296 296 301 301 298 299 297 294 295 294 297 295 298 301 297 295 291 294 293 293 292 291 291 291 288 288 284 289 289
313 314 315 315 314 312 307 298 296 297 295 295 293 294 294 295 297 297 296 297 298 298 295 296 293 296 295 294 295 295 295 289 291 289 294 293 290 292 292 291 290 290 292 291
311 313 313 314 313 310 306 306 308 300 296 293 292 292 294 295 299 299 301 299 298 297 298 300 301 300 299 297 294 294 292 290 290 287 292 291 288 292 293 293 294 293 289 293
310 311 312 313 312 310 307 306 306 301 292 293 292 294 295 294 297 297 300 300 299 302 301 300 299 297 296 296 296 297 292 290 290 285 289 283 292 296 296 295 296 296 295 296
309 310 311 312 312 311 307 308 305 302 294 295 294 294 294 296 296 298 298 301 303 302 300 294 291 291 291 293 295 293 293 291 287 283 285 291 293 295 294 292 292 297 295 296
309 309 310 312 312 311 307 307 308 305 297 295 297 294 295 293 293 296 297 300 303 302 297 294 288 286 290 286 288 293 293 292 288 287 282 282 292 296 298 296 286 297 298 296
308 308 309 310 311 311 308 305 309 304 299 303 301 294 293 296 294 294 294 296 297 300 295 291 289 289 295 286 285 285 286 286 284 284 284 291 297 296 297 285 290 296 297 298
307 308 309 310 311 311 309 306 309 305 299 302 305 305 300 297 296 293 295 294 294 293 292 291 291 291 292 292 292 288 287 286 284 286 284 283 297 294 290 296 296 298 298 299
307 308 309 310 310 311 310 302 308 310 303 302 306 307 309 300 297 297 297 296 295 296 294 295 294 291 293 292 287 295 288 294 290 291 291 298 298 298 299 302 298 298 299 299
306 307 308 309 309 310 309 305 304 304 299 300 299 300 307 308 303 303 295 298 300 299 302 298 296 292 294 288 291 292 294 298 293 293 296 298 299 299 300 300 301 302 301 302
306 307 307 307 308 310 309 304 305 304 301 295 296 306 304 309 304 302 300 300 302 302 301 298 295 293 297 292 293 294 295 296 293 293 296 298 300 300 300 301 301 301 303 303
306 306 307 307 308 309 308 307 306 307 301 293 295 302 303 304 303 300 300 300 300 298 296 295 294 297 294 294 294 292 296 294 292 291 298 297 298 301 302 301 301 302 301 301
305 306 306 306 307 309 304 297 306 307 305 294 289 296 301 300 300 298 298 299 300 299 297 295 297 298 296 289 288 295 298 299 299 297 300 300 300 302 303 301 302 302 302 302
305 305 306 305 307 304 298 296 303 308 305 294 287 289 295 301 298 298 297 299 298 298 296 294 295 294 296 291 289 295 297 299 299 300 297 294 298 297 300 301 302 304 302 301
305 305 305 305 306 304 298 302 305 308 299 296 285 286 289 298 291 291 297 294 295 296 295 295 292 292 292 287 292 296 296 297 298 299 300 297 297 298 298 299 299 298 298 298
304 305 305 303 301 297 298 306 304 302 296 286 285 285 284 296 292 294 294 295 290 295 291 291 293 290 287 291 292 294 297 296 296 296 297 296 296 297 296 298 297 297 297 297
303 297 292 291 297 306 304 298 289 291 291 290 287 293 286 293 292 290 290 293 289 287 289 293 288 288 294 295 296 297 298 298 298 295 294 295 295 295 296 296 298 299 298 297
296 289 287 299 305 299 294 285 285 285 283 286 289 293 288 296 289 289 292 288 290 285 289 287 286 287 292 296 296 298 299 299 298 299 298 298 297 296 296 295 296 297 297 296
295 295 299 297 292 287 285 284 284 285 285 288 290 291 293 293 296 289 289 287 288 283 292 287 283 291 296 297 297 298 299 299 299 298 297 297 297 296 296 295 295 296 297 297
298 291 288 285 285 282 282 279 282 284 288 290 291 288 291 293 294 290 288 285 284 291 284 283 286 294 295 296 298 298 300 299 299 298 298 298 296 296 296 295 296 297 297 297
287 284 280 282 280 283 285 286 288 290 292 291 293 289 290 291 289 289 285 288 288 283 281 282 289 292 296 296 297 296 294 295 296 296 296 296 295 295 296 296 296 296 296 296
285 285 280 281 288 290 291 291 290 292 293 293 291 290 291 289 287 289 286 283 282 283 283 290 294 295 295 295 295 294 294 294 295 295 295 296 296 295 295 296 296 296 296 295
286 285 284 288 287 287 289 289 289 294 293 294 293 287 286 285 285 284 283 281 281 285 290 294 296 295 295 295 295 295 296 295 295 295 295 295 295 295 295 295 295 295 295 295
284 283 288 289 288 288 289 290 292 295 291 286 286 284 284 288 285 283 286 284 290 292 294 295 295 295 295 295 295 295 295 295 294 294 294 294 295 295 294 292 293 295 295 295

GFSNW_sfc_thetae_123.txt.gz
Theta_e
313 314 316 318 318 315 313 304 291 303 308 294 291 290 293 301 300 301 299 297 297 294 293 292 291 292 295 298 296 292 292 288 284 287 292 294 291 288 287 282 282 284 282 283
312 313 315 316 316 314 309 299 297 304 303 287 287 288 293 297 299 298 298 296 298 297 294 291 293 293 298 297 295 293 293 287 282 283 288 291 288 291 289 287 285 283 278 282
311 312 313 314 315 314 311 299 289 297 301 297 288 287 289 290 298 299 299 297 297 295 293 294 292 291 296 296 298 304 298 289 286 283 286 288 285 289 288 285 279 282 282 285
311 312 312 314 315 314 309 300 290 297 290 293 294 290 289 289 290 298 298 294 295 294 290 290 290 292 292 295 302 294 292 286 289 290 291 289 288 289 289 285 284 281 285 286
310 311 311 312 314 312 305 296 295 298 294 293 293 293 289 289 292 295 295 294 296 295 291 292 290 292 290 289 293 291 291 285 287 286 290 289 287 289 289 288 287 285 286 287
309 310 310 311 311 310 303 304 305 300 293 291 290 289 290 292 294 297 300 297 295 294 295 297 296 296 295 294 290 290 288 287 285 282 288 288 285 288 289 290 290 288 285 290
308 309 309 310 310 310 306 305 303 298 291 292 290 291 291 290 293 294 297 298 296 298 299 298 296 293 293 294 294 294 289 287 286 281 285 279 290 293 294 292 293 293 293 295
308 308 309 310 310 310 306 306 301 298 292 294 293 292 292 292 293 294 297 298 300 300 296 290 288 287 288 290 291 290 290 288 283 280 281 287 289 292 291 290 290 295 293 295
307 307 308 309 309 310 306 305 306 299 291 294 297 294 292 291 290 291 294 297 301 298 292 289 282 281 285 283 285 289 290 288 285 282 279 280 290 294 296 293 284 294 295 294
307 307 308 308 309 309 306 305 307 300 292 294 298 295 293 293 293 291 292 294 294 295 289 286 284 285 290 282 282 282 283 282 280 280 280 287 295 294 295 283 287 294 296 295
306 307 307 308 309 310 306 302 307 301 296 297 300 303 300 295 295 291 292 292 292 290 288 287 286 285 288 286 287 284 283 280 280 282 280 281 294 292 289 292 293 295 295 295
306 306 307 308 308 309 308 298 306 307 299 299 303 304 308 302 297 296 293 294 292 293 290 289 289 287 287 288 283 289 285 288 284 286 287 294 295 293 295 297 296 295 296 297
305 306 306 307 308 309 307 300 304 304 299 298 298 300 307 307 301 301 293 292 296 295 296 293 292 287 289 284 286 288 289 292 290 289 293 294 295 295 296 299 297 298 298 298
305 305 306 307 307 308 308 302 303 302 299 292 296 306 304 309 304 301 299 295 296 298 297 294 289 289 292 287 289 289 290 292 290 289 292 294 296 296 297 298 299 299 300 300
304 305 306 307 307 307 305 305 305 305 298 291 295 301 305 308 308 304 302 297 295 294 293 292 289 291 290 288 289 287 291 290 291 290 294 295 296 300 299 298 298 299 300 299
304 305 305 305 306 307 302 296 304 306 305 294 288 297 298 305 307 305 302 298 296 295 291 291 291 294 291 285 284 290 293 294 296 294 296 298 298 300 300 299 299 300 299 300
304 304 305 305 306 303 297 294 302 306 305 294 287 289 295 301 303 302 298 297 296 295 292 289 290 291 292 286 286 291 294 297 296 296 296 293 296 297 299 300 301 303 301 302
304 304 305 304 304 303 298 300 304 307 300 297 285 285 290 297 292 291 297 294 295 294 291 290 288 289 287 285 291 293 295 296 296 297 296 295 295 296 298 298 299 298 298 298
303 304 304 302 299 294 297 305 304 301 297 286 285 284 283 295 292 293 293 295 288 294 290 287 288 287 285 288 290 293 293 294 297 295 295 294 295 295 294 295 295 296 296 295
302 298 292 290 296 305 302 295 289 289 290 289 286 291 286 292 290 287 289 291 288 284 286 290 286 288 292 291 292 294 295 296 293 292 291 291 291 293 293 293 297 297 297 296
295 290 288 295 305 297 292 284 284 284 282 285 289 289 288 294 289 287 291 287 288 283 286 284 281 286 291 291 291 293 293 295 297 296 297 295 295 295 295 292 294 296 296 295
294 294 296 292 290 286 284 283 284 283 283 286 288 289 291 293 295 288 289 286 287 282 287 282 280 289 291 293 294 295 295 296 295 295 296 297 296 296 295 292 293 293 294 295
296 291 286 284 284 280 280 277 280 282 287 288 290 288 291 292 293 289 287 284 284 289 281 281 283 289 294 296 296 295 297 297 297 297 297 295 294 294 293 292 293 293 293 295
287 284 279 280 278 276 277 280 283 288 289 291 291 289 289 290 288 288 284 287 286 282 278 280 284 289 292 294 297 297 296 296 296 296 296 296 295 293 293 293 293 294 294 294
284 283 277 279 284 283 288 286 286 288 292 293 291 289 290 287 285 286 285 283 280 282 281 284 289 292 294 295 291 291 291 291 292 292 292 292 292 292 292 293 294 294 295 295
285 284 281 284 284 278 286 287 288 290 291 294 291 287 285 284 285 283 282 279 279 282 286 290 291 291 291 292 293 292 292 291 291 291 292 292 292 292 293 293 294 294 294 294
284 281 285 283 283 283 283 286 288 291 289 286 286 283 283 286 283 282 283 280 284 288 290 291 292 292 292 292 292 292 292 292 291 291 292 292 293 293 292 291 292 293 294 293

GFSNW_sfc_thetae_126.txt.gz
Theta_e
312 313 312 313 314 314 312 306 295 308 305 291 290 287 292 299 297 299 299 296 295 292 292 289 289 290 293 297 295 290 290 286 283 287 291 293 290 287 286 281 281 282 280 282
310 311 311 313 313 312 308 300 300 308 303 286 285 288 292 295 295 295 297 295 297 295 292 289 291 292 296 296 294 291 291 285 281 283 287 290 287 289 287 285 283 281 278 281
310 310 311 311 312 312 308 301 292 297 299 297 288 287 288 289 295 295 297 296 296 294 291 292 290 290 294 295 297 304 297 287 284 282 285 287 284 288 287 284 279 280 282 282
309 309 310 310 312 311 307 300 293 295 289 290 292 290 288 287 288 294 295 293 295 293 289 289 289 290 290 294 303 292 290 285 286 288 290 290 288 288 287 284 283 281 284 286
308 308 309 310 310 310 303 296 292 296 294 293 292 292 291 287 289 292 293 293 294 293 291 292 289 290 289 289 292 289 289 284 285 284 288 288 286 288 288 287 286 284 284 285
308 308 309 309 309 308 301 303 304 299 294 293 291 291 291 291 291 292 295 296 295 293 294 296 295 295 294 292 290 288 287 285 284 281 286 287 284 287 288 288 288 288 283 287
307 308 308 309 309 308 301 303 302 294 290 292 290 292 294 293 293 290 296 297 297 297 298 296 295 292 292 292 290 290 285 285 285 281 284 279 287 291 291 290 291 289 289 291
307 307 308 308 309 309 304 303 301 296 290 292 292 292 292 293 294 293 295 298 300 299 295 290 287 286 286 288 289 288 288 286 282 281 281 286 288 291 290 289 289 293 292 294
306 306 307 308 308 308 304 303 305 299 289 290 296 292 293 289 290 290 292 296 299 298 292 289 282 281 284 283 284 289 288 288 285 281 279 280 288 292 295 292 284 293 295 294
306 306 307 307 308 307 305 302 305 300 291 292 294 293 292 295 292 289 291 293 293 295 289 285 282 282 287 281 281 282 282 282 281 281 279 285 292 294 293 283 287 293 295 295
305 306 306 307 307 308 303 301 304 300 293 294 298 299 296 296 295 289 292 291 292 290 290 288 284 283 285 283 284 283 283 280 279 280 279 281 294 291 289 291 292 294 294 295
305 305 306 306 307 307 307 299 304 306 298 295 302 303 304 303 302 294 294 294 291 295 289 286 287 285 284 284 280 286 284 286 283 285 286 292 295 292 294 295 294 294 294 295
304 305 305 306 306 307 306 299 300 301 296 297 296 296 303 307 305 301 293 295 295 294 296 292 290 286 287 283 284 285 287 290 286 287 291 292 294 293 294 296 295 296 296 297
304 305 305 305 306 306 306 299 301 301 298 290 291 303 300 309 307 300 299 295 296 295 295 292 288 287 289 285 289 288 289 291 289 287 290 292 295 295 295 296 297 296 297 298
304 304 305 305 305 306 304 300 302 304 297 289 291 299 303 306 307 302 301 299 295 293 292 291 288 288 288 286 287 286 289 288 290 288 295 294 294 296 296 297 298 297 297 297
303 304 304 305 305 305 300 294 301 304 303 294 287 296 296 304 305 304 302 299 296 294 289 289 290 292 290 284 284 291 292 293 298 294 295 297 295 298 298 297 297 298 298 299
303 303 304 304 304 301 296 293 297 305 303 294 286 289 295 300 303 303 302 297 295 294 292 288 288 290 290 284 285 289 292 295 295 294 295 293 295 296 297 299 299 302 299 299
303 303 304 304 304 302 296 301 304 306 298 296 286 286 290 299 293 294 300 296 295 294 291 289 287 288 286 285 291 292 293 294 294 294 296 297 297 297 297 298 297 297 297 297
303 303 303 300 298 293 295 304 304 303 296 285 286 284 284 295 292 293 293 296 290 295 291 288 289 285 284 287 290 293 293 293 295 295 294 292 295 296 297 296 296 297 298 296
301 297 292 290 294 302 302 296 290 288 287 288 286 291 287 292 289 287 289 291 288 285 289 291 289 289 293 290 292 295 295 295 296 295 289 291 292 293 292 295 297 298 299 295
295 290 288 293 300 295 289 283 283 284 281 284 288 290 287 294 288 287 290 286 287 283 286 287 282 287 293 295 291 291 293 295 297 299 299 298 298 296 296 293 294 295 295 295
295 294 295 293 286 285 283 282 283 282 282 286 287 288 292 292 294 289 289 286 286 281 286 281 279 287 294 297 295 294 293 295 294 293 296 294 294 296 295 293 293 293 295 295
296 292 287 284 284 279 275 276 279 281 287 287 290 288 291 292 291 286 286 284 284 287 279 279 281 287 292 296 297 296 297 296 295 294 295 296 294 293 293 292 292 293 292 294
286 283 278 278 278 279 274 277 282 285 288 289 292 289 289 291 288 288 284 287 287 281 279 279 284 287 291 294 296 297 296 297 297 295 294 292 293 292 292 294 293 292 292 292
284 284 274 277 282 286 285 284 284 286 294 291 289 289 290 287 285 286 285 283 280 281 281 283 287 290 291 292 294 295 295 295 295 295 294 292 292 292 292 291 292 293 293 292
285 284 281 282 283 285 288 286 285 291 294 293 292 286 284 284 285 283 280 281 279 282 285 288 290 290 291 289 290 291 291 291 291 292 293 293 292 293 292 290 291 291 292 293
283 281 285 284 284 285 285 287 287 293 292 287 286 282 283 285 283 282 282 280 283 286 288 290 291 290 291 290 290 291 290 290 290 289 289 290 290 290 291 290 290 292 293 293

GFSNW_sfc_thetae_129.txt.gz
Theta_e
311 311 310 310 311 311 308 302 293 308 308 292 289 285 289 298 296 299 298 295 293 291 291 288 288 289 291 296 294 290 289 284 282 285 289 292 290 288 286 280 279 281 279 281
310 310 309 309 310 309 300 295 298 309 305 287 285 289 289 293 293 295 295 295 296 294 291 288 290 290 295 295 293 290 290 284 280 282 286 288 286 288 286 284 282 280 278 280
309 309 309 309 310 310 302 295 290 298 298 295 293 288 288 287 293 293 296 295 295 292 290 291 289 289 293 295 295 302 296 285 284 282 283 286 283 287 286 284 278 279 282 282
308 309 308 308 309 310 302 295 291 297 289 290 291 292 291 288 287 292 294 293 293 292 288 288 288 289 290 293 303 292 290 284 284 286 288 288 288 286 285 283 283 282 282 284
308 308 308 308 309 308 299 291 291 296 294 293 291 292 289 289 289 289 289 289 293 293 291 291 288 289 288 289 291 288 288 284 285 283 287 288 286 287 287 285 284 284 283 284
307 307 308 308 308 307 298 296 300 297 292 292 290 290 291 290 293 291 292 291 290 291 294 295 295 294 293 292 290 286 287 284 282 280 284 285 283 286 287 286 286 287 283 287
306 307 307 307 308 307 302 299 297 292 287 290 291 292 293 292 294 291 292 292 290 294 297 296 294 292 291 291 289 289 285 284 283 280 282 278 286 290 290 289 289 288 287 289
306 306 307 307 308 307 302 302 297 294 287 292 291 293 294 294 295 294 293 295 295 298 294 289 287 286 286 286 287 287 287 285 281 280 279 284 287 290 289 288 289 291 290 290
305 306 306 307 307 307 304 302 303 297 288 289 294 292 294 291 291 293 295 298 299 296 292 289 283 281 284 282 283 287 287 286 284 280 279 280 287 290 293 291 284 292 293 292
305 305 306 306 307 307 304 302 304 298 291 292 294 292 293 296 294 291 293 294 293 295 291 286 282 282 286 281 281 282 282 281 280 281 280 284 291 293 292 284 287 291 293 293
305 305 306 306 306 307 304 300 303 298 293 293 295 296 293 293 295 289 292 292 292 290 287 290 285 282 284 283 284 283 282 280 280 280 279 282 293 291 288 292 291 293 293 294
305 305 305 306 306 306 306 297 302 304 296 294 300 300 301 301 300 295 294 293 292 293 289 287 287 284 282 282 279 284 283 285 283 286 286 292 294 291 294 294 294 293 294 295
304 304 305 305 305 306 305 300 301 299 295 294 295 294 300 304 305 306 291 294 297 295 295 291 290 287 285 282 281 282 285 287 286 287 290 290 293 293 292 294 294 295 295 295
304 304 304 305 305 305 305 299 300 298 294 287 287 299 298 303 305 304 304 297 296 295 295 292 290 288 289 285 287 285 286 289 286 285 289 291 293 294 295 295 295 295 295 296
303 304 304 304 305 305 302 299 301 302 293 288 289 296 300 302 303 303 303 299 295 293 291 290 289 288 287 284 286 284 287 286 288 286 293 293 294 296 295 295 296 296 296 296
303 303 303 304 304 304 296 292 298 302 300 292 286 294 292 299 303 303 300 300 297 294 291 289 289 291 289 283 283 289 290 291 294 293 295 296 294 296 296 297 296 297 296 297
302 303 303 304 304 298 294 292 296 303 302 292 286 286 292 297 302 301 300 300 298 294 291 289 289 289 289 284 283 289 291 294 293 293 295 292 294 296 295 296 297 301 297 296
302 303 303 303 303 301 295 298 301 304 297 295 285 286 290 298 295 295 300 296 296 295 291 288 287 288 286 282 288 290 291 292 293 293 295 295 296 295 296 295 295 296 296 296
302 302 302 297 294 291 295 303 303 301 296 286 285 283 283 295 293 294 296 297 290 296 289 287 289 285 283 286 289 292 292 292 293 293 293 291 294 294 295 295 295 296 297 295
301 296 292 286 294 300 300 296 292 292 285 288 285 287 286 291 289 288 289 292 286 285 289 291 287 289 292 290 290 292 295 294 294 291 288 289 290 293 294 295 297 298 298 298
293 291 288 291 298 292 290 284 283 284 280 284 287 290 287 294 287 286 290 286 287 283 287 286 282 287 293 295 291 293 292 292 294 297 296 296 297 295 293 293 295 297 296 296
295 294 295 293 287 284 281 281 282 279 280 285 286 287 292 292 294 287 288 285 286 282 287 283 280 286 292 295 296 297 297 297 294 295 296 294 296 296 296 296 295 295 296 294
296 292 286 284 283 278 278 277 278 277 285 286 289 288 291 291 290 287 285 283 283 287 281 280 282 287 291 295 297 298 299 299 298 295 294 294 294 295 294 293 293 293 293 293
285 283 278 278 278 277 280 279 280 284 289 288 291 289 290 290 288 287 282 287 285 278 277 278 283 287 292 294 296 297 297 298 298 297 295 292 291 291 292 293 292 292 292 292
284 283 276 277 280 284 284 284 285 288 291 291 290 289 289 287 285 285 285 282 280 280 280 283 286 290 292 291 290 292 293 294 296 297 291 291 290 291 290 290 291 291 291 291
284 283 280 281 280 282 286 287 288 292 293 293 291 285 284 284 284 283 282 281 279 281 284 287 288 289 290 289 289 290 291 292 291 294 294 291 291 291 292 290 290 290 291 291
283 280 284 282 282 283 287 288 289 293 292 286 286 283 282 285 283 281 281 279 281 284 286 287 288 289 290 291 290 290 290 290 290 289 290 291 291 290 289 289 288 289 290 291

GFSNW_sfc_thetae_132.txt.gz
Theta_e
311 311 310 309 310 310 304 295 286 303 306 295 292 287 290 294 293 296 297 295 294 290 290 288 287 288 289 294 292 289 288 284 280 284 287 291 289 287 286 280 279 280 279 280
310 310 309 309 310 308 297 293 290 302 303 288 287 290 292 293 290 292 294 295 295 293 290 288 289 289 294 294 292 289 289 283 279 281 285 286 285 286 286 283 282 279 278 280
309 309 309 308 309 309 299 293 286 290 297 296 291 290 290 290 293 291 292 293 295 292 289 289 288 288 292 294 293 300 295 284 283 282 282 285 283 285 285 284 278 278 281 282
309 308 309 308 309 309 300 294 288 289 286 288 291 293 292 290 289 292 292 290 290 291 288 287 287 287 289 293 303 291 289 284 284 285 286 286 285 285 284 282 282 281 282 284
308 308 308 308 308 308 298 290 289 289 287 290 289 290 288 289 291 291 288 287 291 291 290 291 288 289 287 289 292 289 287 284 284 282 286 287 286 287 285 284 283 283 282 283
307 307 307 308 307 306 296 297 298 292 287 286 286 288 289 291 292 294 293 291 289 288 290 294 294 293 293 292 290 286 286 284 282 279 284 284 282 285 287 285 285 286 282 287
305 306 305 307 307 306 299 298 297 290 284 286 286 288 290 291 293 291 294 294 290 292 295 294 294 292 291 291 288 289 284 284 282 279 281 278 286 288 289 289 289 287 286 288
305 305 305 306 307 307 301 301 296 291 284 287 287 289 289 293 294 294 294 295 297 299 293 289 287 287 287 286 286 285 286 285 280 280 278 283 286 288 288 286 288 291 290 289
304 305 305 306 306 306 303 301 302 295 287 286 291 290 290 287 289 291 294 299 300 297 291 288 284 282 285 282 283 285 286 285 284 278 279 279 287 290 292 291 285 291 292 289
304 305 305 305 306 306 303 300 302 295 287 291 293 289 290 294 293 290 293 295 294 297 287 285 284 284 287 281 281 281 281 282 280 280 279 283 289 292 292 285 288 290 292 291
304 305 305 305 305 306 303 300 302 296 287 291 294 295 293 292 290 289 294 293 293 290 285 286 287 283 285 283 283 282 282 280 279 280 279 281 292 290 288 292 290 292 291 293
304 304 304 305 305 305 305 297 301 302 294 290 299 298 299 298 297 293 295 294 291 290 288 289 288 283 282 284 279 282 283 285 283 285 285 292 294 291 293 293 293 292 292 294
303 303 303 304 305 305 304 299 299 299 293 292 292 292 298 301 302 304 293 294 297 294 296 293 290 286 285 283 282 283 284 286 285 286 290 290 292 293 292 293 293 293 294 295
303 303 303 303 304 305 304 298 299 298 291 285 289 297 294 300 301 302 302 299 300 296 297 291 290 286 287 285 288 286 286 288 284 284 286 290 291 294 295 294 293 293 294 296
302 303 303 303 304 304 302 298 299 301 292 286 288 294 297 299 299 300 302 300 297 295 291 291 288 288 287 284 286 284 286 286 288 286 290 292 293 297 295 295 294 295 295 295
301 302 303 303 303 303 297 290 297 301 299 290 285 294 291 296 299 299 299 299 298 296 293 292 291 291 290 282 282 287 288 290 294 291 294 294 293 294 296 297 296 296 295 296
301 302 303 303 303 298 293 289 295 302 300 290 285 286 291 293 297 298 298 299 298 296 293 290 288 289 291 283 285 289 290 292 292 291 294 292 293 295 294 295 296 300 295 295
301 302 302 302 302 300 294 297 301 303 296 293 285 284 287 294 291 293 299 296 296 295 294 289 290 288 286 281 289 291 290 292 291 292 293 293 295 295 294 293 294 295 295 294
301 301 301 296 293 289 292 301 302 300 293 285 284 280 277 293 293 291 295 296 288 294 290 290 289 288 284 286 288 291 290 291 293 292 292 290 292 294 294 293 293 294 296 294
299 296 291 286 290 300 300 294 290 290 286 287 284 288 284 291 290 289 290 288 286 284 288 292 287 287 291 290 290 290 292 294 293 291 288 288 289 292 293 294 295 296 296 295
294 290 288 290 298 294 290 284 284 284 280 283 286 288 286 293 287 287 291 286 285 283 288 286 285 285 292 293 291 291 291 292 292 292 294 295 295 294 293 293 294 295 295 295
293 294 295 294 288 285 280 280 281 278 276 282 285 287 288 292 294 289 288 286 286 282 289 284 280 286 292 295 295 297 297 296 295 293 293 294 294 294 294 295 295 295 296 295
294 290 286 283 283 278 277 273 279 279 284 285 289 287 289 291 291 288 286 282 282 286 283 281 283 286 291 294 297 297 299 299 298 298 296 293 293 294 293 293 293 294 294 294
286 282 279 278 277 273 275 278 282 285 287 287 289 289 288 288 286 286 283 285 284 281 279 279 285 287 290 294 296 297 297 298 298 298 299 297 292 292 292 294 294 292 293 293
283 283 276 278 278 279 284 284 285 286 290 290 289 289 290 286 285 285 284 282 280 281 278 281 287 289 288 289 289 289 292 293 293 295 296 296 294 293 291 292 292 293 293 292
283 283 280 280 280 277 284 286 287 291 291 293 291 285 284 284 284 282 280 281 278 280 282 286 288 288 289 288 288 289 291 292 292 294 295 294 292 292 293 291 290 291 292 291
282 281 284 283 281 281 284 288 289 293 290 285 285 282 281 285 281 279 280 279 282 286 285 287 288 288 289 288 288 288 289 289 289 290 292 291 292 290 289 289 288 289 290 291

GFSNW_sfc_thetae_135.txt.gz
Theta_e
312 312 311 309 310 310 303 294 287 299 309 293 292 289 291 296 294 295 294 296 294 292 291 289 289 290 292 295 293 290 290 287 283 286 290 292 293 291 290 285 283 284 284 286
311 311 311 310 310 308 296 292 290 298 300 280 286 291 292 294 294 292 292 293 296 295 292 289 290 290 295 294 293 291 291 286 282 285 289 291 289 289 288 286 287 283 284 286
311 310 310 310 309 308 298 291 284 289 294 291 285 284 288 289 296 295 296 290 292 293 290 291 290 289 294 294 294 301 296 286 286 284 286 288 286 286 287 288 284 283 285 287
309 309 309 309 309 308 298 292 287 290 280 286 287 287 286 286 288 295 295 292 291 288 288 288 288 290 291 295 299 294 292 287 285 287 288 287 287 286 286 286 286 286 286 287
306 309 307 308 308 307 295 289 288 291 287 286 285 286 284 285 286 290 290 289 291 290 287 290 288 289 289 290 294 290 289 286 287 286 288 288 288 287 287 288 285 286 286 286
306 307 307 307 307 305 294 296 296 291 287 286 283 283 285 286 289 292 294 293 292 289 290 293 292 292 293 292 292 288 288 286 284 283 286 286 284 288 287 287 287 289 285 292
306 307 306 306 307 304 296 296 295 288 282 285 284 286 287 287 288 285 290 294 293 295 298 296 294 293 291 292 290 290 286 286 285 282 284 280 289 291 292 291 291 289 289 290
306 306 305 305 306 306 299 299 294 290 283 287 286 286 286 287 289 288 288 293 298 297 295 288 286 287 287 287 287 288 288 286 282 282 281 285 288 289 289 289 291 292 292 291
304 305 304 304 305 306 300 299 299 294 286 285 289 287 288 285 285 286 290 297 301 298 290 286 282 281 286 283 284 287 287 287 287 280 282 281 289 291 293 293 288 294 294 293
303 303 304 304 305 305 301 298 300 295 287 290 291 287 287 291 289 286 290 293 294 296 287 284 282 283 288 282 281 282 283 284 283 283 283 285 290 293 293 288 291 293 294 293
302 303 304 304 305 305 301 297 301 296 286 289 293 293 291 291 290 286 291 291 293 289 285 286 285 285 287 286 285 284 284 282 281 282 282 283 293 291 291 295 294 294 293 294
302 302 303 304 305 305 304 296 302 302 294 290 295 296 297 297 296 292 291 288 291 291 287 287 289 285 284 288 283 286 284 288 285 287 287 294 294 294 295 295 295 294 294 296
301 302 303 304 304 304 302 298 299 298 293 291 292 291 296 300 299 301 290 293 294 294 296 291 290 285 285 284 287 285 287 288 288 289 291 291 294 294 295 296 297 296 296 297
301 302 303 303 303 303 303 298 300 297 290 285 285 296 294 299 300 300 300 296 299 298 296 292 290 287 290 287 288 289 288 288 286 287 289 292 293 295 296 295 296 296 296 298
301 302 303 303 303 303 302 299 299 300 291 285 287 291 294 297 297 298 300 298 296 294 290 290 287 290 288 285 286 284 287 287 289 290 291 294 295 298 297 296 296 296 296 296
301 302 302 302 303 302 298 290 296 300 298 288 283 291 291 294 296 295 296 298 297 295 291 290 293 292 291 285 283 288 288 289 295 292 295 295 295 296 297 298 296 296 297 297
301 301 301 301 302 298 293 289 294 301 298 289 285 285 290 293 296 295 295 298 296 294 293 291 290 290 292 285 282 289 289 292 292 294 295 293 295 296 295 297 298 300 296 297
300 301 300 301 301 300 294 297 300 302 294 292 282 280 285 294 291 290 297 293 294 294 292 292 290 290 289 285 288 293 294 291 291 293 295 295 296 295 294 295 296 296 295 295
300 299 300 296 294 290 291 301 302 298 292 284 284 281 278 293 291 290 293 294 288 294 289 290 290 288 285 289 289 290 293 292 292 293 293 293 294 295 293 294 295 295 296 294
297 295 291 288 290 299 299 294 289 290 287 288 282 288 279 290 290 286 288 290 287 283 287 293 287 287 292 291 292 293 295 294 295 290 289 291 291 293 293 294 296 298 298 296
292 288 287 291 298 293 290 284 282 283 281 283 284 286 281 289 284 286 290 286 285 282 286 287 285 285 291 294 291 290 291 294 294 296 296 296 296 295 294 294 295 295 295 296
292 291 293 293 288 284 281 280 279 281 275 276 283 286 287 288 289 287 288 285 286 281 288 285 281 285 293 295 295 296 292 292 292 293 294 294 294 295 294 295 295 295 297 295
292 290 285 283 283 278 274 265 275 273 281 285 287 286 290 290 291 287 285 282 281 287 284 281 284 288 290 295 296 297 299 296 295 294 294 294 293 294 293 293 294 295 295 295
285 281 272 279 272 271 270 272 277 284 284 285 287 287 286 289 285 286 283 284 284 280 279 279 284 288 289 290 295 297 297 298 297 297 296 294 293 292 293 294 294 294 294 294
282 282 276 273 278 278 282 284 281 285 288 288 287 288 288 286 285 285 284 282 279 278 281 283 286 288 289 289 290 291 294 296 297 298 296 295 293 292 292 293 293 294 294 293
282 282 278 281 279 279 280 283 284 289 288 289 290 285 284 283 283 282 281 279 278 280 284 289 288 288 290 289 289 289 291 292 293 294 295 297 297 296 297 296 294 293 294 293
279 279 282 283 281 280 280 286 288 293 287 284 285 281 281 286 281 280 283 281 283 287 287 288 288 288 289 290 289 289 289 289 289 290 292 294 295 294 292 290 290 293 293 294

GFSNW_sfc_thetae_138.txt.gz
Theta_e
311 311 312 311 311 310 307 300 289 305 312 294 295 289 291 295 294 300 296 296 294 294 296 294 294 294 298 300 299 295 301 297 291 292 295 297 299 296 296 290 289 292 291 292
310 310 310 311 310 309 305 295 294 304 303 287 289 292 292 294 293 294 294 293 297 296 294 292 295 297 299 299 298 297 297 295 289 289 293 295 293 296 297 295 295 291 289 293
308 309 309 310 310 309 304 295 287 294 297 294 289 286 286 286 293 293 295 293 295 293 291 294 294 293 295 297 299 307 302 296 294 291 293 296 291 294 296 294 291 292 292 294
308 308 308 308 309 310 302 294 289 292 286 287 289 289 287 285 285 290 293 292 292 292 287 290 291 294 293 295 297 299 298 293 295 295 294 294 294 293 293 293 294 291 295 294
308 308 309 307 308 308 298 289 290 293 289 290 288 288 286 286 287 288 287 285 287 293 290 291 291 289 291 292 297 294 296 294 293 292 293 293 291 293 294 294 295 295 294 293
307 307 307 307 307 306 296 296 298 294 288 287 285 286 286 286 289 289 290 289 288 288 293 297 298 295 295 293 291 292 294 294 291 289 292 291 289 293 293 295 296 296 292 297
306 306 307 307 306 304 299 299 298 289 283 286 285 286 287 286 287 286 290 291 288 292 297 300 298 296 294 293 293 295 293 293 293 290 290 284 295 298 299 295 297 298 298 299
303 305 306 307 305 305 300 299 296 291 285 287 286 286 287 288 289 288 289 292 295 298 293 288 287 287 288 289 293 294 294 294 291 288 287 293 292 293 295 294 296 300 297 299
303 301 304 304 305 304 301 301 303 294 286 285 288 287 288 285 286 287 290 294 297 295 289 288 283 282 286 285 287 290 292 293 293 289 287 285 296 298 300 300 293 304 302 300
303 304 303 304 304 305 304 301 303 295 286 291 291 287 287 290 289 287 290 291 292 295 286 285 285 285 290 285 285 285 286 289 288 291 289 293 297 297 301 292 296 303 304 302
302 302 302 303 304 304 303 301 304 296 290 292 293 294 290 291 291 286 291 290 291 290 284 286 287 288 289 289 292 290 288 288 288 291 289 287 297 296 295 303 301 301 302 303
302 302 302 302 303 304 304 297 304 304 293 292 297 297 298 297 295 293 292 290 288 291 289 289 291 289 291 290 286 293 287 293 292 294 293 299 298 303 302 301 302 300 302 301
302 302 301 302 303 303 303 301 302 299 292 291 291 292 297 300 300 301 290 292 294 292 295 292 291 289 293 288 290 292 294 295 294 294 297 296 296 300 300 301 302 302 302 302
302 302 301 302 303 303 303 299 301 296 287 285 289 299 296 301 300 299 299 296 297 296 297 289 288 289 295 291 293 293 296 295 295 295 297 297 297 299 302 301 301 301 302 303
302 301 301 302 302 303 303 303 301 300 292 285 288 295 298 300 299 298 298 297 295 293 290 288 288 294 294 294 292 292 297 295 294 294 301 300 301 300 301 302 301 302 301 301
301 300 301 302 302 302 299 291 299 302 298 288 284 295 295 297 297 296 296 297 296 294 291 289 293 296 292 291 289 296 298 299 301 300 303 302 302 301 301 302 303 303 303 304
300 300 301 301 301 301 292 290 298 302 301 290 285 287 294 296 297 296 296 298 296 295 292 290 291 293 295 290 289 296 299 299 299 301 302 299 299 301 301 303 305 305 303 304
300 300 300 300 300 299 294 299 302 301 293 292 284 283 288 297 292 290 297 293 294 293 290 293 291 293 292 287 294 297 299 299 298 299 300 300 301 302 301 303 304 302 302 302
299 299 299 299 296 292 295 301 302 303 293 284 285 284 283 295 292 294 293 295 287 294 289 290 291 289 286 291 294 296 298 299 299 301 300 299 298 300 301 301 302 302 302 302
298 297 291 288 294 299 301 296 291 291 289 289 285 289 285 292 292 290 291 292 289 283 288 293 287 287 294 295 297 298 299 300 301 298 298 297 297 298 299 300 302 303 304 303
293 289 288 295 298 296 291 285 284 284 283 285 287 288 286 294 287 288 292 288 288 283 287 287 285 286 292 296 297 299 300 301 301 302 302 302 300 300 300 300 301 303 305 303
293 292 292 293 288 285 283 282 284 283 281 285 283 285 288 291 295 289 290 286 287 282 290 286 283 291 295 297 298 299 300 301 301 302 302 302 302 301 302 302 302 301 303 304
295 290 285 284 284 279 277 274 279 281 285 286 286 286 289 291 293 289 288 283 282 291 285 283 287 294 296 296 298 299 301 300 299 300 302 302 301 301 301 301 302 303 302 302
286 282 278 280 278 280 281 282 284 288 289 288 289 288 288 290 288 287 282 285 287 280 279 282 289 293 294 295 296 297 299 301 300 298 299 300 299 300 301 301 302 301 301 301
282 282 276 279 284 284 285 286 287 288 290 290 288 289 289 287 285 285 285 282 279 283 283 290 292 293 294 295 295 295 298 300 301 301 300 300 300 300 299 301 301 301 302 301
282 281 279 284 283 283 284 285 285 290 289 290 288 285 284 282 284 281 280 280 280 285 290 292 293 293 294 294 295 295 296 298 300 301 302 301 300 300 300 301 300 300 301 300
280 279 283 284 284 283 285 286 287 292 288 283 285 283 282 287 283 281 285 283 289 292 293 293 293 292 293 294 293 293 294 294 296 300 302 302 302 302 300 299 299 300 300 301

GFSNW_sfc_thetae_141.txt.gz
Theta_e
310 310 309 310 311 311 308 300 290 304 309 294 293 289 291 295 293 296 295 297 296 295 296 295 295 296 299 304 303 297 300 298 292 293 299 302 300 297 297 292 291 294 292 293
309 308 308 308 309 309 303 294 295 304 305 287 290 291 291 294 293 293 293 291 295 297 294 291 296 298 304 303 302 298 300 296 291 292 294 297 295 298 299 298 297 292 290 294
307 307 307 307 308 308 303 291 287 294 297 295 290 288 288 287 293 292 293 293 295 292 292 296 293 295 299 299 300 307 306 297 294 291 293 296 292 295 298 297 293 292 294 296
305 306 306 307 308 308 304 294 287 294 288 289 290 289 288 286 286 291 292 289 290 290 287 289 291 295 296 299 299 298 299 292 296 297 298 298 296 295 296 295 296 293 296 297
305 305 306 306 307 307 299 288 287 293 291 291 290 290 287 286 288 288 287 287 290 289 287 289 288 292 292 292 295 295 297 292 295 294 297 295 294 297 297 296 297 297 297 297
304 305 306 307 306 306 299 296 294 291 289 289 288 288 288 288 289 290 290 289 288 287 289 292 294 295 297 295 292 291 291 293 292 290 296 294 289 294 296 297 299 298 294 300
304 305 306 307 307 306 302 296 296 289 285 288 287 288 289 288 289 287 290 291 288 293 297 296 295 293 295 295 294 295 290 291 292 290 293 283 295 302 300 298 299 301 301 302
303 304 304 305 306 307 300 299 295 291 285 288 288 288 288 289 290 288 289 291 293 296 293 288 285 286 288 290 294 293 293 291 287 287 288 293 293 297 298 296 297 303 302 303
303 303 305 303 304 305 300 297 299 293 287 286 290 288 289 287 287 288 289 294 297 295 290 287 280 279 285 285 289 295 294 292 288 287 286 285 295 301 304 303 293 305 304 304
303 303 304 303 303 303 299 297 300 294 288 291 291 287 287 290 289 287 289 290 291 295 287 283 281 281 289 284 285 287 287 287 284 285 286 292 300 302 303 291 296 307 307 306
303 302 304 303 303 303 301 299 304 298 292 292 293 293 290 291 290 287 290 289 291 289 284 284 284 284 287 286 290 290 287 285 284 286 287 287 301 299 295 303 305 306 308 309
302 301 304 302 303 303 304 298 303 304 295 293 297 297 297 296 295 292 292 290 290 291 287 287 289 286 289 289 285 295 287 292 290 292 293 302 302 302 303 305 307 304 307 309
301 302 303 302 302 303 303 301 302 299 292 292 292 292 297 300 298 299 289 292 294 291 293 288 288 287 292 287 290 291 296 299 294 295 300 302 301 303 303 304 305 305 307 308
302 301 303 303 301 302 302 300 303 299 291 285 289 299 296 300 299 298 298 296 297 296 295 290 288 285 290 292 293 293 296 298 296 296 299 303 304 301 302 302 304 303 305 306
301 301 301 302 301 302 303 303 303 304 293 286 289 295 298 300 299 297 298 297 295 293 289 287 287 291 291 294 294 291 297 296 294 293 301 302 302 305 303 302 303 304 304 304
301 301 301 301 301 301 299 292 301 304 299 288 284 294 294 297 299 298 296 297 295 293 290 289 291 295 293 286 289 296 298 300 302 300 304 305 305 304 304 302 305 305 305 306
301 301 301 301 301 302 294 291 299 302 300 287 284 287 294 297 297 297 296 298 295 294 291 289 290 292 293 289 286 295 299 300 301 302 303 300 302 301 303 304 306 307 306 307
300 300 300 301 301 300 295 300 302 299 295 292 285 285 289 297 291 289 296 293 294 292 291 291 289 292 292 286 293 296 297 300 301 301 303 302 305 302 303 304 306 305 304 305
299 300 300 300 296 293 295 300 301 300 291 284 286 284 283 296 293 294 293 295 287 294 289 289 291 288 286 291 293 295 297 298 299 302 302 301 301 301 301 303 304 304 305 305
299 298 293 287 293 300 300 294 290 291 289 290 285 290 285 292 292 290 290 291 288 284 288 293 286 288 293 295 296 298 299 299 300 298 299 300 300 301 301 301 304 305 306 306
296 290 287 295 299 296 291 285 284 285 282 286 287 288 285 292 287 287 292 288 288 283 287 286 285 285 291 296 296 298 299 299 301 301 302 304 304 302 301 302 303 305 306 307
294 293 293 291 287 285 283 282 284 283 282 288 285 287 289 290 295 289 290 285 287 281 291 286 283 290 295 296 297 298 299 299 300 301 301 302 303 304 303 303 303 304 305 307
295 288 286 284 285 280 278 276 280 281 287 288 287 285 288 290 293 289 288 283 282 291 284 283 287 292 294 297 298 300 301 301 300 300 301 302 303 304 304 303 304 305 304 306
287 283 278 280 279 282 283 283 285 289 290 290 289 288 287 290 287 288 282 286 288 280 279 281 288 292 294 297 298 298 298 300 301 301 301 302 302 303 304 304 305 304 304 305
284 283 277 280 285 286 288 289 289 291 293 290 289 289 289 286 285 286 284 282 279 281 282 287 291 296 297 297 298 298 298 298 299 302 302 302 301 302 303 304 305 304 305 303
284 282 280 284 284 285 286 285 286 291 291 290 290 283 283 282 285 282 280 280 279 284 289 295 296 296 297 297 297 298 298 298 298 301 302 303 301 301 302 303 304 304 304 303
281 279 285 284 285 285 286 287 288 293 289 285 285 283 281 288 283 282 285 283 286 290 295 296 296 295 295 296 296 296 296 296 297 298 302 303 303 303 301 301 302 303 304 304

GFSNW_sfc_thetae_144.txt.gz
Theta_e
308 308 309 309 309 309 307 299 289 303 305 292 292 288 289 293 291 294 291 292 290 289 293 292 292 293 297 302 301 296 300 295 290 291 298 299 297 294 295 288 287 289 287 286
306 306 307 307 308 307 303 293 293 303 301 285 287 291 290 292 290 290 290 290 292 293 291 288 293 295 300 300 298 298 299 293 287 289 292 295 293 296 296 295 293 288 285 287
305 305 306 306 307 307 303 293 285 293 296 295 290 288 288 287 293 291 293 291 292 290 289 291 290 292 297 298 299 304 301 294 291 286 290 293 290 293 295 294 289 288 289 290
304 304 305 305 306 306 301 293 287 291 284 287 290 290 288 286 286 291 291 288 288 286 284 287 287 291 292 295 300 298 296 291 293 294 295 296 294 293 293 292 293 289 292 293
303 304 304 304 305 305 296 288 287 291 288 289 284 288 287 287 287 287 286 286 287 288 285 286 285 288 289 290 295 295 296 290 293 291 295 295 293 295 294 294 295 294 294 293
304 304 304 304 305 304 294 296 296 290 287 286 285 286 288 288 290 290 290 289 287 286 288 290 292 292 293 293 290 292 291 290 290 286 293 293 289 293 294 295 296 296 292 296
303 304 303 304 304 304 298 297 294 287 281 284 284 286 289 289 289 287 290 290 287 291 294 294 293 292 291 291 291 294 288 288 289 287 289 282 293 298 298 296 298 298 298 299
303 303 303 304 304 304 300 300 292 286 283 286 286 286 286 289 291 289 289 290 292 294 290 285 283 283 284 286 289 291 293 288 285 284 285 289 293 296 296 294 294 300 298 300
303 303 303 303 303 304 301 300 300 293 286 285 289 287 288 286 286 287 288 292 294 293 289 285 278 275 281 282 286 292 293 291 287 286 283 281 292 298 300 300 290 300 301 300
302 302 303 303 303 302 295 295 299 292 287 290 292 288 287 289 288 286 288 289 289 292 285 281 278 278 284 279 280 284 286 286 282 284 284 289 297 300 301 289 291 301 302 302
302 302 303 303 303 303 297 294 296 292 287 289 292 293 290 290 289 285 288 287 288 288 282 282 281 280 282 281 284 285 285 283 283 285 283 282 299 298 294 297 301 301 301 303
301 302 302 302 302 304 302 296 298 299 293 292 297 296 296 295 294 290 291 288 288 290 286 285 286 283 284 284 278 288 282 289 286 288 287 297 300 298 301 299 299 300 301 303
300 301 302 302 303 303 302 299 300 298 293 292 292 291 296 298 297 297 287 290 292 292 294 289 286 281 286 281 283 286 290 294 290 291 294 296 299 301 298 300 300 302 302 304
300 301 302 301 303 303 302 299 301 298 292 284 287 297 293 298 298 297 296 293 294 294 294 288 286 283 289 284 287 285 290 294 291 292 296 298 300 301 302 300 300 301 302 303
300 301 301 301 301 302 302 301 301 301 293 285 287 293 294 298 298 296 296 294 292 291 288 285 285 289 288 288 289 286 291 291 291 289 297 297 298 302 301 300 300 301 301 301
300 301 301 301 300 300 298 291 299 302 300 289 281 294 292 295 296 295 294 294 293 292 290 287 289 292 289 285 284 290 295 298 299 296 300 301 301 301 301 300 301 302 302 303
300 301 301 301 301 299 292 291 298 302 300 288 283 285 292 295 295 295 295 295 293 292 290 288 288 289 290 286 282 290 293 295 296 301 300 297 300 298 300 301 303 305 304 304
300 300 300 300 301 300 294 298 301 300 293 290 283 283 287 295 290 289 295 291 292 291 289 290 288 289 288 283 289 293 294 295 296 297 300 299 300 299 299 300 302 301 301 302
299 300 299 299 296 292 293 302 302 300 292 284 284 281 281 294 291 292 292 292 286 292 287 287 289 286 283 288 290 292 293 294 295 297 299 299 298 297 299 298 299 300 301 301
298 298 292 287 293 300 300 294 289 289 288 287 283 288 284 290 289 287 287 289 285 282 286 291 286 285 290 293 294 295 296 296 296 294 294 296 297 297 297 297 299 300 302 301
295 290 287 295 299 295 290 284 282 284 282 285 286 286 284 291 284 285 289 285 285 281 284 285 283 283 288 292 293 295 296 296 297 297 297 298 299 300 298 298 299 300 300 301
294 293 293 291 288 284 282 281 283 282 280 286 284 286 287 288 292 286 287 283 285 280 288 284 281 287 291 292 293 295 296 296 296 297 296 298 300 300 301 300 299 300 300 301
295 289 285 283 283 278 276 274 279 280 285 288 287 285 288 288 290 286 284 280 280 288 282 281 284 292 294 294 295 295 296 297 297 297 298 299 299 300 300 300 300 301 300 301
285 283 278 279 279 279 281 282 284 287 289 288 287 286 286 288 285 285 280 283 284 279 277 279 284 288 290 292 295 295 294 296 297 297 298 298 298 298 300 301 301 299 300 300
283 283 276 278 284 285 286 288 288 289 291 289 287 287 288 286 283 284 283 280 276 278 278 282 287 289 292 294 295 294 294 295 296 296 298 299 299 299 299 300 300 299 300 300
284 282 279 283 282 283 285 285 285 290 290 290 289 283 281 281 282 281 279 277 277 281 285 289 293 292 293 293 294 294 294 293 294 295 296 298 299 298 298 300 299 299 300 299
281 279 283 283 283 282 285 286 287 291 287 283 284 278 278 284 281 280 282 280 283 286 289 292 293 292 292 292 293 293 293 292 292 293 294 295 299 298 297 296 297 298 300 300